Year,Month,Day,Hour,Minute,Value (Times are PST for temperature in C)
2016,09,28,14,08,17.90
2016,09,28,14,09,18.00
2016,09,28,14,11,18.20
2016,09,28,14,12,18.20
2016,09,28,14,13,18.20
2016,09,28,14,14,18.20
2016,09,28,14,15,18.20
2016,09,28,14,16,18.20
2016,09,28,14,17,18.30
2016,09,28,14,18,18.30
2016,09,28,14,19,18.30
2016,09,28,14,20,18.40
2016,09,28,14,21,18.50
2016,09,28,14,22,18.50
2016,09,28,14,23,18.60
2016,09,28,14,24,18.50
2016,09,28,14,25,18.50
2016,09,28,14,26,18.50
2016,09,28,14,27,18.40
2016,09,28,14,28,18.20
2016,09,28,14,29,18.20
2016,09,28,14,30,18.10
2016,09,28,14,31,18.00
2016,09,28,14,32,17.90
2016,09,28,14,33,17.70
2016,09,28,14,34,17.60
2016,09,28,14,35,17.50
2016,09,28,14,36,17.60
2016,09,28,14,37,17.50
2016,09,28,14,38,17.40
2016,09,28,14,39,17.40
2016,09,28,14,40,17.50
2016,09,28,14,41,17.40
2016,09,28,14,42,17.40
2016,09,28,14,43,17.30
2016,09,28,14,44,17.30
2016,09,28,14,45,17.30
2016,09,28,14,46,17.30
2016,09,28,14,47,17.30
2016,09,28,14,48,17.30
2016,09,28,14,49,17.40
2016,09,28,14,50,17.50
2016,09,28,14,51,17.50
2016,09,28,14,52,17.50
2016,09,28,14,53,17.50
2016,09,28,14,54,17.40
2016,09,28,14,55,17.40
2016,09,28,14,56,17.40
2016,09,28,14,57,17.40
2016,09,28,14,58,17.50
2016,09,28,14,59,17.50
2016,09,28,15,00,17.40
2016,09,28,15,01,17.40
2016,09,28,15,02,17.50
2016,09,28,15,03,17.50
2016,09,28,15,04,17.40
2016,09,28,15,05,17.40
2016,09,28,15,06,17.40
2016,09,28,15,07,17.30
2016,09,28,15,08,17.30
2016,09,28,15,09,17.20
2016,09,28,15,10,17.10
2016,09,28,15,11,17.10
2016,09,28,15,12,17.10
2016,09,28,15,13,17.00
2016,09,28,15,14,17.00
2016,09,28,15,15,17.10
2016,09,28,15,16,17.20
2016,09,28,15,17,17.30
2016,09,28,15,18,17.30
2016,09,28,15,19,17.30
2016,09,28,15,20,17.30
2016,09,28,15,21,17.30
2016,09,28,15,22,17.30
2016,09,28,15,23,17.30
2016,09,28,15,24,17.30
2016,09,28,15,25,17.30
2016,09,28,15,26,17.30
2016,09,28,15,27,17.30
2016,09,28,15,28,17.30
2016,09,28,15,29,17.30
2016,09,28,15,30,17.30
2016,09,28,15,31,17.40
2016,09,28,15,32,17.40
2016,09,28,15,33,17.40
2016,09,28,15,34,17.50
2016,09,28,15,35,17.50
2016,09,28,15,36,17.50
2016,09,28,15,37,17.50
2016,09,28,15,38,17.50
2016,09,28,15,39,17.50
2016,09,28,15,40,17.50
2016,09,28,15,41,17.40
2016,09,28,15,42,17.50
2016,09,28,15,43,17.60
2016,09,28,15,44,17.60
2016,09,28,15,45,17.60
2016,09,28,15,46,17.60
2016,09,28,15,47,17.60
2016,09,28,15,48,17.60
2016,09,28,15,49,17.70
2016,09,28,15,50,17.80
2016,09,28,15,51,17.80
2016,09,28,15,52,17.80
2016,09,28,15,53,17.80
2016,09,28,15,54,17.80
2016,09,28,15,55,17.70
2016,09,28,15,56,17.60
2016,09,28,15,57,17.60
2016,09,28,15,58,17.50
2016,09,28,15,59,17.50
2016,09,28,16,00,17.50
2016,09,28,16,01,17.40
2016,09,28,16,02,17.50
2016,09,28,16,03,17.50
2016,09,28,16,04,17.50
2016,09,28,16,05,17.60
2016,09,28,16,06,17.60
2016,09,28,16,07,17.50
2016,09,28,16,08,17.40
2016,09,28,16,09,17.30
2016,09,28,16,10,17.30
2016,09,28,16,11,17.30
2016,09,28,16,12,17.30
2016,09,28,16,13,17.20
2016,09,28,16,14,17.20
2016,09,28,16,15,17.30
2016,09,28,16,16,17.30
2016,09,28,16,17,17.30
2016,09,28,16,18,17.30
2016,09,28,16,19,17.30
2016,09,28,16,20,17.30
2016,09,28,16,21,17.30
2016,09,28,16,22,17.30
2016,09,28,16,23,17.30
2016,09,28,16,24,17.30
2016,09,28,16,25,17.40
2016,09,28,16,26,17.40
2016,09,28,16,27,17.50
2016,09,28,16,28,17.50
2016,09,28,16,29,17.50
2016,09,28,16,30,17.50
2016,09,28,16,31,17.60
2016,09,28,16,32,17.50
2016,09,28,16,33,17.50
2016,09,28,16,34,17.60
2016,09,28,16,35,17.70
2016,09,28,16,36,17.70
2016,09,28,16,37,17.70
2016,09,28,16,38,17.70
2016,09,28,16,39,17.60
2016,09,28,16,40,17.50
2016,09,28,16,41,17.50
2016,09,28,16,42,17.40
2016,09,28,16,43,17.30
2016,09,28,16,44,17.30
2016,09,28,16,45,17.30
2016,09,28,16,46,17.30
2016,09,28,16,47,17.30
2016,09,28,16,48,17.30
2016,09,28,16,49,17.30
2016,09,28,16,50,17.30
2016,09,28,16,51,17.30
2016,09,28,16,52,17.30
2016,09,28,16,53,17.30
2016,09,28,16,54,17.40
2016,09,28,16,55,17.40
2016,09,28,16,56,17.50
2016,09,28,16,57,17.60
2016,09,28,16,58,17.60
2016,09,28,16,59,17.60
2016,09,28,17,00,17.60
2016,09,28,17,01,17.60
2016,09,28,17,02,17.60
2016,09,28,17,03,17.70
2016,09,28,17,04,17.70
2016,09,28,17,05,17.70
2016,09,28,17,06,17.70
2016,09,28,17,07,17.70
2016,09,28,17,08,17.60
2016,09,28,17,09,17.60
2016,09,28,17,10,17.70
2016,09,28,17,11,17.70
2016,09,28,17,12,17.60
2016,09,28,17,13,17.50
2016,09,28,17,14,17.40
2016,09,28,17,15,17.40
2016,09,28,17,16,17.30
2016,09,28,17,17,17.30
2016,09,28,17,18,17.30
2016,09,28,17,19,17.30
2016,09,28,17,20,17.30
2016,09,28,17,21,17.30
2016,09,28,17,22,17.30
2016,09,28,17,23,17.30
2016,09,28,17,24,17.30
2016,09,28,17,25,17.20
2016,09,28,17,26,17.10
2016,09,28,17,27,17.00
2016,09,28,17,28,17.00
2016,09,28,17,29,17.00
2016,09,28,17,30,17.00
2016,09,28,17,31,17.00
2016,09,28,17,32,16.90
2016,09,28,17,33,16.90
2016,09,28,17,34,16.90
2016,09,28,17,35,16.80
2016,09,28,17,36,16.80
2016,09,28,17,37,16.70
2016,09,28,17,38,16.70
2016,09,28,17,39,16.70
2016,09,28,17,40,16.70
2016,09,28,17,41,16.70
2016,09,28,17,42,16.70
2016,09,28,17,43,16.70
2016,09,28,17,44,16.70
2016,09,28,17,45,16.70
2016,09,28,17,46,16.70
2016,09,28,17,47,16.70
2016,09,28,17,48,16.70
2016,09,28,17,49,16.70
2016,09,28,17,50,16.70
2016,09,28,17,51,16.60
2016,09,28,17,52,16.60
2016,09,28,17,53,16.60
2016,09,28,17,54,16.50
2016,09,28,17,55,16.40
2016,09,28,17,56,16.40
2016,09,28,17,57,16.30
2016,09,28,17,58,16.30
2016,09,28,17,59,16.30
2016,09,28,18,00,16.30
2016,09,28,18,01,16.30
2016,09,28,18,02,16.30
2016,09,28,18,03,16.30
2016,09,28,18,04,16.30
2016,09,28,18,05,16.30
2016,09,28,18,06,16.30
2016,09,28,18,07,16.30
2016,09,28,18,08,16.30
2016,09,28,18,09,16.20
2016,09,28,18,10,16.20
2016,09,28,18,11,16.20
2016,09,28,18,12,16.10
2016,09,28,18,13,16.10
2016,09,28,18,14,16.10
2016,09,28,18,15,16.10
2016,09,28,18,16,16.10
2016,09,28,18,17,16.10
2016,09,28,18,18,16.10
2016,09,28,18,19,16.00
2016,09,28,18,20,15.90
2016,09,28,18,21,15.90
2016,09,28,18,22,15.90
2016,09,28,18,23,15.90
2016,09,28,18,24,15.90
2016,09,28,18,25,15.90
2016,09,28,18,26,15.90
2016,09,28,18,27,15.90
2016,09,28,18,28,15.90
2016,09,28,18,29,15.80
2016,09,28,18,30,15.80
2016,09,28,18,31,15.80
2016,09,28,18,32,15.90
2016,09,28,18,33,15.90
2016,09,28,18,34,15.90
2016,09,28,18,35,15.80
2016,09,28,18,36,15.80
2016,09,28,18,37,15.80
2016,09,28,18,38,15.80
2016,09,28,18,39,15.80
2016,09,28,18,40,15.80
2016,09,28,18,41,15.70
2016,09,28,18,42,15.70
2016,09,28,18,43,15.60
2016,09,28,18,44,15.60
2016,09,28,18,45,15.60
2016,09,28,18,46,15.50
2016,09,28,18,47,15.50
2016,09,28,18,48,15.50
2016,09,28,18,49,15.40
2016,09,28,18,50,15.40
2016,09,28,18,51,15.30
2016,09,28,18,52,15.30
2016,09,28,18,53,15.30
2016,09,28,18,54,15.30
2016,09,28,18,55,15.30
2016,09,28,18,56,15.30
2016,09,28,18,57,15.30
2016,09,28,18,58,15.30
2016,09,28,18,59,15.20
2016,09,28,19,00,15.20
2016,09,28,19,01,15.20
2016,09,28,19,02,15.20
2016,09,28,19,03,15.20
2016,09,28,19,04,15.20
2016,09,28,19,05,15.20
2016,09,28,19,06,15.20
2016,09,28,19,07,15.20
2016,09,28,19,08,15.20
2016,09,28,19,09,15.10
2016,09,28,19,10,15.10
2016,09,28,19,11,15.10
2016,09,28,19,12,15.10
2016,09,28,19,13,15.00
2016,09,28,19,14,15.00
2016,09,28,19,15,15.00
2016,09,28,19,16,15.00
2016,09,28,19,17,14.90
2016,09,28,19,18,14.90
2016,09,28,19,19,14.90
2016,09,28,19,20,14.90
2016,09,28,19,21,14.80
2016,09,28,19,22,14.80
2016,09,28,19,23,14.80
2016,09,28,19,24,14.80
2016,09,28,19,25,14.80
2016,09,28,19,26,14.70
2016,09,28,19,27,14.70
2016,09,28,19,28,14.70
2016,09,28,19,29,14.60
2016,09,28,19,30,14.60
2016,09,28,19,31,14.60
2016,09,28,19,32,14.50
2016,09,28,19,33,14.50
2016,09,28,19,34,14.50
2016,09,28,19,35,14.40
2016,09,28,19,36,14.40
2016,09,28,19,37,14.30
2016,09,28,19,38,14.30
2016,09,28,19,39,14.30
2016,09,28,19,40,14.20
2016,09,28,19,41,14.20
2016,09,28,19,42,14.20
2016,09,28,19,43,14.20
2016,09,28,19,44,14.10
2016,09,28,19,45,14.10
2016,09,28,19,46,14.10
2016,09,28,19,47,14.10
2016,09,28,19,48,14.00
2016,09,28,19,49,14.00
2016,09,28,19,50,14.00
2016,09,28,19,51,13.90
2016,09,28,19,52,13.90
2016,09,28,19,53,13.90
2016,09,28,19,54,13.90
2016,09,28,19,55,13.80
2016,09,28,19,56,13.80
2016,09,28,19,57,13.80
2016,09,28,19,58,13.80
2016,09,28,19,59,13.80
2016,09,28,20,00,13.80
2016,09,28,20,01,13.70
2016,09,28,20,02,13.70
2016,09,28,20,03,13.70
2016,09,28,20,04,13.70
2016,09,28,20,05,13.70
2016,09,28,20,06,13.70
2016,09,28,20,07,13.60
2016,09,28,20,08,13.60
2016,09,28,20,09,13.60
2016,09,28,20,10,13.50
2016,09,28,20,11,13.50
2016,09,28,20,12,13.40
2016,09,28,20,13,13.40
2016,09,28,20,14,13.30
2016,09,28,20,15,13.30
2016,09,28,20,16,13.30
2016,09,28,20,17,13.30
2016,09,28,20,18,13.30
2016,09,28,20,19,13.20
2016,09,28,20,20,13.20
2016,09,28,20,21,13.20
2016,09,28,20,22,13.20
2016,09,28,20,23,13.20
2016,09,28,20,24,13.20
2016,09,28,20,25,13.10
2016,09,28,20,26,13.10
2016,09,28,20,27,13.10
2016,09,28,20,28,13.10
2016,09,28,20,29,13.10
2016,09,28,20,30,13.00
2016,09,28,20,31,13.00
2016,09,28,20,32,13.00
2016,09,28,20,33,13.00
2016,09,28,20,34,12.90
2016,09,28,20,35,12.90
2016,09,28,20,36,12.90
2016,09,28,20,37,12.90
2016,09,28,20,38,12.90
2016,09,28,20,39,12.80
2016,09,28,20,40,12.80
2016,09,28,20,41,12.80
2016,09,28,20,42,12.80
2016,09,28,20,43,12.80
2016,09,28,20,44,12.80
2016,09,28,20,45,12.80
2016,09,28,20,46,12.80
2016,09,28,20,47,12.80
2016,09,28,20,48,12.80
2016,09,28,20,49,12.70
2016,09,28,20,50,12.70
2016,09,28,20,51,12.70
2016,09,28,20,52,12.70
2016,09,28,20,53,12.70
2016,09,28,20,54,12.60
2016,09,28,20,55,12.60
2016,09,28,20,56,12.60
2016,09,28,20,57,12.60
2016,09,28,20,58,12.60
2016,09,28,20,59,12.60
2016,09,28,21,00,12.50
2016,09,28,21,01,12.50
2016,09,28,21,02,12.50
2016,09,28,21,03,12.50
2016,09,28,21,04,12.50
2016,09,28,21,05,12.40
2016,09,28,21,06,12.40
2016,09,28,21,07,12.40
2016,09,28,21,08,12.40
2016,09,28,21,09,12.40
2016,09,28,21,10,12.30
2016,09,28,21,11,12.30
2016,09,28,21,12,12.30
2016,09,28,21,13,12.30
2016,09,28,21,14,12.30
2016,09,28,21,15,12.20
2016,09,28,21,16,12.20
2016,09,28,21,17,12.20
2016,09,28,21,18,12.10
2016,09,28,21,19,12.10
2016,09,28,21,20,12.00
2016,09,28,21,21,12.00
2016,09,28,21,22,11.90
2016,09,28,21,23,11.90
2016,09,28,21,24,11.90
2016,09,28,21,25,11.80
2016,09,28,21,26,11.80
2016,09,28,21,27,11.80
2016,09,28,21,28,11.80
2016,09,28,21,29,11.70
2016,09,28,21,30,11.70
2016,09,28,21,31,11.60
2016,09,28,21,32,11.60
2016,09,28,21,33,11.60
2016,09,28,21,34,11.60
2016,09,28,21,35,11.60
2016,09,28,21,36,11.60
2016,09,28,21,37,11.60
2016,09,28,21,38,11.50
2016,09,28,21,39,11.40
2016,09,28,21,40,11.40
2016,09,28,21,41,11.40
2016,09,28,21,42,11.40
2016,09,28,21,43,11.40
2016,09,28,21,44,11.40
2016,09,28,21,45,11.40
2016,09,28,21,46,11.40
2016,09,28,21,47,11.40
2016,09,28,21,48,11.40
2016,09,28,21,49,11.40
2016,09,28,21,50,11.40
2016,09,28,21,51,11.40
2016,09,28,21,52,11.40
2016,09,28,21,53,11.30
2016,09,28,21,54,11.30
2016,09,28,21,55,11.30
2016,09,28,21,56,11.30
2016,09,28,21,57,11.30
2016,09,28,21,58,11.20
2016,09,28,21,59,11.20
2016,09,28,22,00,11.20
2016,09,28,22,01,11.10
2016,09,28,22,02,11.10
2016,09,28,22,03,11.10
2016,09,28,22,04,11.10
2016,09,28,22,05,11.10
2016,09,28,22,06,11.10
2016,09,28,22,07,11.00
2016,09,28,22,08,10.90
2016,09,28,22,09,10.90
2016,09,28,22,10,10.90
2016,09,28,22,11,11.00
2016,09,28,22,12,11.10
2016,09,28,22,13,11.10
2016,09,28,22,14,11.10
2016,09,28,22,15,11.10
2016,09,28,22,16,11.10
2016,09,28,22,17,11.10
2016,09,28,22,18,11.10
2016,09,28,22,19,11.10
2016,09,28,22,20,11.10
2016,09,28,22,21,11.10
2016,09,28,22,22,11.10
2016,09,28,22,23,11.10
2016,09,28,22,24,11.10
2016,09,28,22,25,11.10
2016,09,28,22,26,11.10
2016,09,28,22,27,11.10
2016,09,28,22,28,11.10
2016,09,28,22,29,11.10
2016,09,28,22,30,11.10
2016,09,28,22,31,11.10
2016,09,28,22,32,11.10
2016,09,28,22,33,11.10
2016,09,28,22,34,11.10
2016,09,28,22,35,11.10
2016,09,28,22,36,10.90
2016,09,28,22,37,10.90
2016,09,28,22,38,10.90
2016,09,28,22,39,10.90
2016,09,28,22,40,10.90
2016,09,28,22,41,10.90
2016,09,28,22,42,10.90
2016,09,28,22,43,10.90
2016,09,28,22,44,10.90
2016,09,28,22,45,10.90
2016,09,28,22,46,10.90
2016,09,28,22,47,10.80
2016,09,28,22,48,10.80
2016,09,28,22,49,10.80
2016,09,28,22,50,10.80
2016,09,28,22,51,10.80
2016,09,28,22,52,10.70
2016,09,28,22,53,10.70
2016,09,28,22,54,10.70
2016,09,28,22,55,10.70
2016,09,28,22,56,10.70
2016,09,28,22,57,10.70
2016,09,28,22,58,10.70
2016,09,28,22,59,10.70
2016,09,28,23,00,10.70
2016,09,28,23,01,10.70
2016,09,28,23,02,10.70
2016,09,28,23,03,10.70
2016,09,28,23,04,10.70
2016,09,28,23,05,10.70
2016,09,28,23,06,10.60
2016,09,28,23,07,10.60
2016,09,28,23,08,10.60
2016,09,28,23,09,10.60
2016,09,28,23,10,10.60
2016,09,28,23,11,10.60
2016,09,28,23,12,10.60
2016,09,28,23,13,10.60
2016,09,28,23,14,10.60
2016,09,28,23,15,10.60
2016,09,28,23,16,10.60
2016,09,28,23,17,10.60
2016,09,28,23,18,10.60
2016,09,28,23,19,10.60
2016,09,28,23,20,10.60
2016,09,28,23,21,10.60
2016,09,28,23,22,10.60
2016,09,28,23,23,10.60
2016,09,28,23,24,10.60
2016,09,28,23,25,10.60
2016,09,28,23,26,10.60
2016,09,28,23,27,10.60
2016,09,28,23,28,10.60
2016,09,28,23,29,10.60
2016,09,28,23,30,10.60
2016,09,28,23,31,10.60
2016,09,28,23,32,10.60
2016,09,28,23,33,10.60
2016,09,28,23,34,10.60
2016,09,28,23,35,10.50
2016,09,28,23,36,10.40
2016,09,28,23,37,10.40
2016,09,28,23,38,10.40
2016,09,28,23,39,10.40
2016,09,28,23,40,10.30
2016,09,28,23,41,10.30
2016,09,28,23,42,10.20
2016,09,28,23,43,10.20
2016,09,28,23,44,10.10
2016,09,28,23,45,10.10
2016,09,28,23,46,10.10
2016,09,28,23,47,10.00
2016,09,28,23,48,9.90
2016,09,28,23,49,9.90
2016,09,28,23,50,9.90
2016,09,28,23,51,9.90
2016,09,28,23,52,9.80
2016,09,28,23,53,9.80
2016,09,28,23,54,9.70
2016,09,28,23,55,9.70
2016,09,28,23,56,9.70
2016,09,28,23,57,9.70
2016,09,28,23,58,9.70
2016,09,28,23,59,9.60
